Great Falls, MT

4:41 PM MDT on June 25, 2017 (GMT -0600)
Great Falls International

Weather History for KGTF - February, 2012

Change the Weather History Date:

Saturday, February 11, 2012

  Actual Average Record
Temperature  
Mean Temperature 13 °F 27 °F  
Max Temperature 24 °F 38 °F 62 °F (2005)
Min Temperature 2 °F 16 °F -35 °F (1899)
Degree Days  
Heating Degree Days 52 38  
Month to date heating degree days 423 426  
Since 1 July heating degree days 4183 4877  
Cooling Degree Days 0 0  
Month to date cooling degree days 0 0  
Year to date cooling degree days 0 0  
Moisture  
Dew Point 7 °F    
Average Humidity 76    
Maximum Humidity 91    
Minimum Humidity 60    
Precipitation  
Precipitation 0.00 in 0.02 in 0.43 in (1978)
Month to date precipitation 0.10 0.17  
Year to date precipitation 0.40 0.68  
Snow  
Snow 0.00 in 0.20 in 8.60 in (1978)
Month to date snowfall 1.8 3.0  
Since 1 July snowfall 17.4 34.8  
Snow Depth 1.00 in    
Sea Level Pressure  
Sea Level Pressure 30.34 in    
Wind  
Wind Speed 4 mph (ENE)    
Max Wind Speed 10 mph    
Max Gust Speed 12 mph    
Visibility 10 miles    
Events      
T = Trace of Precipitation, MM = Missing Value Source: NWS Daily Summary

Daily Weather History Graph

Daily Weather History Graph

Search for Another Location

Airport or City:

Trip Planner

Search our weather history database for the weather conditions in past years. The results will help you decide how hot, cold, wet, or windy it might be!

Date:

Astronomy

Feb. 11, 2012 Rise Set
Actual Time 7:37 AM MST 5:42 PM MST
Civil Twilight 7:05 AM MST 6:14 PM MST
Nautical Twilight 6:29 AM MST 6:50 PM MST
Astronomical Twilight 5:54 AM MST 7:26 PM MST
Moon 11:01 PM MST (2/11) 8:58 AM MST (2/11)
Length of Visible Light 11h 08m
Length of Day
10h 04m
Waning Gibbous, 81% of the Moon is Illuminated
Feb 11
Waning Gibbous
Feb 14
Last Quarter
Feb 21
New
Feb 29
First Quarter
Mar 8
Full

Hourly Weather History & Observations

Time (MST) Temp. Windchill Dew Point Humidity Pressure Visibility Wind Dir Wind Speed Gust Speed Precip Events Conditions
12:11 AM 10.4 °F 4.0 °F 6.8 °F 85% 30.31 in 10.0 mi NNE 3.5 mph - N/A   Overcast
12:44 AM 12.2 °F 2.9 °F 6.8 °F 79% 30.31 in 10.0 mi NE 5.8 mph - N/A   Overcast
12:53 AM 12.0 °F 2.7 °F 7.0 °F 80% 30.53 in 10.0 mi NE 5.8 mph - N/A   Overcast
1:53 AM 9.0 °F 0.6 °F 5.0 °F 84% 30.52 in 10.0 mi ENE 4.6 mph - N/A   Overcast
2:24 AM 6.8 °F -0.1 °F 3.2 °F 85% 30.29 in 10.0 mi East 3.5 mph - N/A   Scattered Clouds
2:53 AM 3.9 °F -6.9 °F 1.0 °F 88% 30.52 in 10.0 mi ENE 5.8 mph - N/A   Clear
3:53 AM 8.1 °F - 5.0 °F 87% 30.50 in 10.0 mi Calm Calm - N/A   Overcast
4:53 AM 6.1 °F -4.3 °F 3.0 °F 87% 30.51 in 10.0 mi ENE 5.8 mph - N/A   Scattered Clouds
5:53 AM 3.0 °F - -0.0 °F 87% 30.50 in 10.0 mi Calm Calm - N/A   Clear
6:53 AM 3.9 °F -3.4 °F 1.9 °F 91% 30.48 in 10.0 mi East 3.5 mph - N/A   Overcast
7:35 AM 3.2 °F -4.2 °F 1.4 °F 92% 30.23 in 10.0 mi ENE 3.5 mph - N/A   Mostly Cloudy
7:53 AM 3.9 °F -6.9 °F 1.0 °F 88% 30.47 in 9.0 mi ENE 5.8 mph - N/A   Mostly Cloudy
8:53 AM 5.0 °F -4.1 °F 1.9 °F 87% 30.47 in 10.0 mi East 4.6 mph - N/A   Mostly Cloudy
9:53 AM 8.1 °F 1.4 °F 3.9 °F 83% 30.45 in 10.0 mi East 3.5 mph - N/A   Scattered Clouds
10:53 AM 12.9 °F - 7.0 °F 77% 30.43 in 10.0 mi Calm Calm - N/A   Overcast
11:53 AM 16.0 °F - 8.1 °F 71% 30.41 in 10.0 mi Calm Calm - N/A   Overcast
12:53 PM 17.1 °F 11.7 °F 10.9 °F 77% 30.36 in 10.0 mi East 3.5 mph - N/A   Overcast
1:53 PM 21.0 °F 16.2 °F 12.0 °F 68% 30.33 in 10.0 mi East 3.5 mph - N/A   Overcast
2:53 PM 21.0 °F 10.6 °F 12.0 °F 68% 30.32 in 10.0 mi East 9.2 mph - N/A   Overcast
3:53 PM 21.9 °F 11.7 °F 12.0 °F 66% 30.28 in 10.0 mi East 9.2 mph - N/A   Overcast
4:53 PM 24.1 °F 15.2 °F 12.9 °F 62% 30.27 in 10.0 mi ENE 8.1 mph - N/A   Overcast
5:53 PM 21.9 °F 13.4 °F 12.0 °F 66% 30.26 in 10.0 mi ENE 6.9 mph - N/A   Overcast
6:53 PM 19.9 °F 13.4 °F 12.0 °F 71% 30.25 in 10.0 mi East 4.6 mph - N/A   Overcast
7:53 PM 21.0 °F 16.2 °F 12.0 °F 68% 30.23 in 10.0 mi East 3.5 mph - N/A   Overcast
8:53 PM 19.0 °F 13.9 °F 12.9 °F 77% 30.21 in 10.0 mi South 3.5 mph - N/A   Overcast
9:53 PM 14.0 °F 6.5 °F 10.9 °F 88% 30.19 in 10.0 mi SSW 4.6 mph - N/A   Clear
10:53 PM 15.1 °F - 10.9 °F 84% 30.16 in 10.0 mi Calm Calm - N/A   Scattered Clouds
11:53 PM 14.0 °F - 10.0 °F 84% 30.13 in 10.0 mi Calm Calm - N/A   Partly Cloudy